Погода в Тамбове

Погода в Тамбове : погода сейчас, прогноз погоды и архив. Всё, что Вы хотите узнать о погоде в Тамбове!

Поиск расширенной информации на нашем сайте:

Полезная информация:

Другие новости

Новости СМИ2

Главная страница сайта

Новости сайта

03.07.2017

Напоминаем, что на нашем специализированном сайте Метеоцентр.Азия вы можете получить высокодетализированные автоматические прогнозы погоды по пунктам России, СНГ и мира в авиационном формате (включающие направление и скорость ветра, видимость, явления погоды, количество и форму облачности, нижнюю и верхнюю границу облачности).

Рекомендуем:

Погода в Тамбове - сегодня

Время (UTC), дата Ветер
(°,м/с) 
Видим.   Явления Облачность Т
(°С)
Тd
(°С)
f(%) Тe
(°С)
Pmin
(гПа)
dP
(гПа)
Po
(мм)
O2
(г/м3)
Тmin Tmax R s Состояние
почвы
00 16.07.19 тихо ()   10 км    3/0 верхняя 
[Ci fib]
+9.3 +6.1 80 +9  1011.3  746  290           
03 16.07.19 350 (С) 10 км    9/0 верхняя 
[Ci sp]
+11.9 +9.5 85 +14  1011.1  746  286  +8.8         
06 16.07.19 100 (В) 10 км    9/0 верхняя 
[Ci sp]
+24.2 +9 38 +24  1010.3  -0.2  746  275           
09 16.07.19 090 (В) 10 км    9/4 1000 м верхняя 
[Cu hum|Ci fib]
+25.8 +7 30 +26  1009.9  -0.4  746  273           
12 16.07.19 140 (ЮВ) 10 км    9/6 1200 м средняя 
[Sc diur, vesp|Ac trans]
+24.9 +8.6 35 +25  1009.2  -0.7  745  274           
15 16.07.19 260 (З) 3{11}  10 км    9/6 1300 м средняя 
[Sc|Ac trans]
+21.8 +11.9 53 +26  1009.2  -0.1  745  276    +26.6       
18 16.07.19 140 (ЮВ) 2{10}  10 км  в посл. час ливневой дождь  9/8 1200 м кучево-дожд., средняя 
[Cb calv|Ac trans]
+16.8 +12.3 75 +22  1010.5  746  281           
21 16.07.19 тихо ()   10 км  в посл. час ливневой дождь  9/8 1140 м кучево-дожд., средняя 
[Cb calv|Ac trans]
+15.5 +13.7 89 +22  1009.8  0.7  746  281           
00 17.07.19 030 (СВ) 10 км  {ливн. осадки}  10/10 840 м кучево-дожд. 
[Cb calv]
+15.2 +13.9 92 +24  1008.8  -1.1  745  281           
03 17.07.19 030 (СВ) 10 км    10/10 300 м кучево-дожд. 
[Cb calv]
+15.5 +14.1 91 +23  1007.4  -1.2  744  281  +15.1    0.3     
06 17.07.19 060 (СВ) 10 км  {дождь}  10/10 210 м 
[St]
+16.4 +14.7 90 +25  1005.9  -1.5  743  279           
09 17.07.19 060 (СВ) 10 км  слаб. дождь  10/10 210 м 
[Frnb|Ns]
+17.5 +16 91 +29  1005.4  -0.4  742  278           
12 17.07.19 нст () 10 км  {дождь}  10/10 540 м кучево-дожд. 
[Cb calv]
+20.9 +15 69 +30  1004.3  -1  742  274           
15 17.07.19 030 (СВ) 10 км  слаб. ливневой дождь  10/10 660 м кучево-дожд. 
[Cb calv]
+19 +16.7 87 +33  1004.1  -0.2  742  276    +21.8     
18 17.07.19 тихо ()   10 км  местами туман поземный{ливн. осадки}  6/6 720 м 
[Sc diur, vesp]
+17.5 +16.5 94 +29  1005  0.8  742  277           
21 17.07.19 130 (ЮВ) 5000 м  местами туман поземный  6/0 средняя 
[Ac trans]
+14.8 +14.1 96 +23  1005.3  0.1  742  281           
00 18.07.19 140 (ЮВ) 1500 м  местами туман поземный  6/0 средняя 
[Ac trans]
+14.2 +13.8 97 +22  1005.5  0.2  742  281           
03 18.07.19 150 (ЮВ) 4000 м  в посл. час туман  3/0 верхняя 
[Ci fib]
+15 +13.9 93 +23  1006.3  0.8  743  281  +13.3    0.0     
06 18.07.19 230 (ЮЗ) 10 км  {туман}  4/3 1000 м верхняя 
[Cu hum|Ci fib]
+21.2 +14 63 +28  1006.5  0.6  743  275           
09 18.07.19 240 (ЮЗ) 10 км    8/8 1000 м 
[Cu med, cong]
+24.9 +12.2 45 +29  1006.8  0.4  744  272           
12 18.07.19 150 (ЮВ) 10 км    8/8 1000 м кучево-дожд. 
[Cb calv]
+26.6 +10.7 37 +29  1006.3  -0.4  743  271           
15 18.07.19 тихо () {10}  10 км  в посл. час ливневой дождь  8/8 1000 м кучево-дожд. 
[Cb calv]
+19 +16.5 85 +31  1007.3  0.7  744  277    +26.6  0.6     
18 18.07.19 150 (ЮВ) 10 км  {ливн. осадки}  3/3 1000 м 
[Sc diur, vesp]
+17.6 +15.8 89 +29  1007.9  0.5  744  278           
21 18.07.19 160 (Ю) 8000 м  дымка  3/0 верхняя 
[Ci fib]
+14.8 +13.7 93 +23  1009  0.8  745  282           
00 19.07.19 тихо ()   8000 м  дымка  3/0 верхняя 
[Ci fib]
+12.3 +11.3 94 +15  1010.1  746  285           
Время (UTC), дата Ветер
(°,м/с) 
Видим.   Явления Облачность Т
(°С)
Тd
(°С)
f(%) Тe
(°С)
Pmin
(гПа)
dP
(гПа)
Po
(мм)
O2
(г/м3)
Тmin Tmax R s Состояние
почвы

Для получения пояснительной информации подведите курсор к названию столбца.

ПОГОДА в Тамбове - архив

Всё, что Вы хотите узнать о погоде в Тамбове - удобно и подробно!

Выберите нужную дату (начиная с 1 января 2018* года) и нажмите кнопку "Найти".
Будут отображены архивные сводки погоды по пункту Тамбов, начиная с указанной даты.


Отображать данные в формате CSV (для использования в таблицах Excel)


Внимание! Наш архив погоды предназначен исключительно для личного некоммерческого использования в познавательных целях. Если Вам необходимы официальные справки о состоянии погоды (для производственных, юридических, коммерческих и т.п. целей), обращайтесь в органы Росгидромета.

*Примечание: данная дата относится к архиву по метеостанциям СССР (Россия, СНГ, Балтия).
Архив по метеостанциям Зарубежной Европы и Азии (кроме Китая) хранится 10 дней, по другим регионам земного шара (Китай, Африка, Америка, Австралия, Океания) - 1 день.

Тамбов - район местоположения метеостанции


Название, широта, долгота, высота метеостанции:
Тамбов 52.8°ш. 41.3°д. 128 м над ур. моря [Российская Федерация]

Дополнительная информация

В oтличие oт бoльшинства пoгoдных сайтoв мы публикуем пoдрoбную метеoинфoрмацию в детальнoм прoфессиoнальнoм фoрмате.

Характеристики температуры и влажнoсти вoздуха измеряются на высoте 2 м в тени вдали oт зданий и деревьев.
Скoрoсть ветра измеряется на высoте 10 м (на урoвне рoста челoвека скoрoсть ветра ниже в 1.5-2 раза). Если метеoстанция нахoдится в гoрoде или в лесу, тo скoрoсть ветра занижена на 2-4 м/с пo сравнению с oткрытым местoм. Скoрoсть ветра над акватoриями крупных рек и oзёр, а также на вершинах хoлмoв на 2-5 м/с выше, чем в oбычных услoвиях.
Атмoсфернoе давление в разных тoчках местнoсти мoжет значительнo oтличаться oт давления на метеoстанции, в зависимoсти oт услoвий рельефа (при пoдъёме на 10 м давление пoнижается примернo на 1 мм рт.ст.).